Weather History for Casper, WY

Change the Weather History Date:

Saturday, March 30, 2013

  Actual Average Record
Temperature  
Mean Temperature 41 °F 39 °F  
Max Temperature 54 °F 52 °F 73 °F (1966)
Min Temperature 28 °F 25 °F 6 °F (1954)
Degree Days  
Heating Degree Days 24 26  
Month to date heating degree days 942 898  
Since 1 July heating degree days 5992 6346  
Cooling Degree Days 0 0  
Month to date cooling degree days 0 0  
Year to date cooling degree days 0 0  
Moisture  
Dew Point 31 °F    
Average Humidity 64    
Maximum Humidity 92    
Minimum Humidity 36    
Precipitation  
Precipitation 0.14 in 0.04 in 0.14 in (2013)
Month to date precipitation 0.85 0.79  
Year to date precipitation 1.62 1.87  
Snow  
Snow 0.00 in 0.40 in - ()
Month to date snowfall 7.1 10.5  
Since 1 July snowfall 39.8 59.9  
Snow Depth 0.00 in    
Sea Level Pressure  
Sea Level Pressure 30.15 in    
Wind  
Wind Speed 7 mph (WNW)    
Max Wind Speed 25 mph    
Max Gust Speed 31 mph    
Visibility 9 miles    
Events Rain , Snow    
T = Trace of Precipitation, MM = Missing Value Source: NWS Daily Summary

Daily Weather History Graph

Daily Weather History Graph

Search for Another Location

Airport:

Trip Planner

Search our weather history database for the weather conditions in past years. The results will help you decide how hot, cold, wet, or windy it might be!

Date:

Astronomy

Mar. 30, 2013 Rise Set
Actual Time 6:50 AM MDT 7:30 PM MDT
Civil Twilight 6:22 AM MDT 7:58 PM MDT
Nautical Twilight 5:48 AM MDT 8:32 PM MDT
Astronomical Twilight 5:13 AM MDT 9:07 PM MDT
Moon 11:46 PM MDT 8:42 AM MDT
Length of Visible Light 13h 36m
Length of Day
12h 39m
Waning Gibbous, 86% of the Moon is Illuminated
Mar 30
Waning Gibbous
Apr 2
Last Quarter
Apr 10
New
Apr 18
First Quarter
Apr 25
Full

Hourly Weather History & Observations

Time (MDT) Temp. Windchill Dew Point Humidity Pressure Visibility Wind Dir Wind Speed Gust Speed Precip Events Conditions
12:53 AM 39.0 °F 32.3 °F 32.0 °F 76% 30.07 in 10.0 mi NNE 10.4 mph - N/A   Scattered Clouds
1:53 AM 33.1 °F 30.0 °F 28.9 °F 85% 30.09 in 10.0 mi West 3.5 mph - N/A   Clear
2:53 AM 30.0 °F - 27.0 °F 88% 30.09 in 10.0 mi Calm Calm - N/A   Clear
3:53 AM 28.9 °F 20.4 °F 27.0 °F 92% 30.09 in 10.0 mi NNW 9.2 mph - N/A   Clear
4:53 AM 28.9 °F 25.2 °F 27.0 °F 92% 30.09 in 10.0 mi NNW 3.5 mph - N/A   Mostly Cloudy
5:53 AM 33.1 °F - 30.0 °F 89% 30.11 in 10.0 mi Calm Calm - 0.00 in Rain Light Rain
6:53 AM 35.1 °F 32.2 °F 33.1 °F 92% 30.11 in 10.0 mi NE 3.5 mph - 0.00 in Rain Light Rain
7:53 AM 36.0 °F - 34.0 °F 93% 30.13 in 10.0 mi Calm Calm - 0.00 in   Overcast
8:53 AM 36.0 °F 33.3 °F 34.0 °F 93% 30.14 in 8.0 mi West 3.5 mph - 0.00 in Rain Light Rain
9:16 AM 37.4 °F - 35.6 °F 93% 30.15 in 6.0 mi Calm Calm - 0.01 in Rain Light Rain
9:53 AM 36.0 °F 29.6 °F 33.1 °F 89% 30.17 in 5.0 mi NNE 8.1 mph - 0.03 in Rain Light Rain
10:19 AM 33.8 °F 27.0 °F 30.2 °F 87% 30.17 in 1.8 mi North 8.1 mph - 0.03 in Snow Light Snow
10:53 AM 34.0 °F - 32.0 °F 92% 30.20 in 2.0 mi Calm Calm - 0.09 in Snow Light Snow
11:04 AM 35.6 °F - 33.8 °F 93% 30.17 in 6.0 mi Calm Calm - 0.01 in Rain Light Rain
11:28 AM 35.6 °F - 33.8 °F 93% 30.18 in 10.0 mi Calm Calm - 0.01 in   Overcast
11:48 AM 35.6 °F - 33.8 °F 93% 30.18 in 10.0 mi Calm Calm - 0.01 in Rain Light Rain
11:53 AM 36.0 °F - 33.1 °F 89% 30.20 in 10.0 mi Calm Calm - 0.01 in Rain Light Rain
12:33 PM 37.4 °F 33.8 °F 35.6 °F 93% 30.17 in 10.0 mi South 4.6 mph - 0.01 in Rain Light Rain
12:46 PM 39.2 °F 35.0 °F 37.4 °F 93% 30.17 in 8.0 mi South 5.8 mph - 0.01 in   Overcast
12:53 PM 39.9 °F 35.8 °F 37.0 °F 89% 30.17 in 8.0 mi South 5.8 mph - 0.01 in   Overcast
1:53 PM 44.1 °F 39.0 °F 37.9 °F 79% 30.17 in 10.0 mi WSW 9.2 mph - N/A   Overcast
2:21 PM 46.4 °F 41.1 °F 37.4 °F 71% 30.16 in 10.0 mi West 11.5 mph - N/A   Mostly Cloudy
2:53 PM 46.9 °F - 35.1 °F 63% 30.16 in 10.0 mi West 13.8 mph 20.7 mph 0.00 in Rain Light Rain
3:53 PM 50.0 °F - 26.1 °F 39% 30.14 in 10.0 mi NW 18.4 mph 28.8 mph 0.00 in   Scattered Clouds
4:53 PM 52.0 °F - 26.1 °F 37% 30.14 in 10.0 mi NNW 15.0 mph 23.0 mph N/A   Mostly Cloudy
5:53 PM 50.0 °F - 25.0 °F 38% 30.14 in 10.0 mi NNW 20.7 mph 26.5 mph N/A   Scattered Clouds
6:53 PM 46.9 °F - 26.1 °F 44% 30.15 in 10.0 mi NW 10.4 mph - N/A   Clear
7:53 PM 41.0 °F 35.8 °F 27.0 °F 57% 30.17 in 10.0 mi NW 8.1 mph - N/A   Clear
8:53 PM 36.0 °F 30.3 °F 26.1 °F 67% 30.21 in 10.0 mi SW 6.9 mph - N/A   Clear
9:53 PM 34.0 °F 28.8 °F 27.0 °F 75% 30.22 in 10.0 mi WSW 5.8 mph - N/A   Clear
10:53 PM 34.0 °F 28.0 °F 27.0 °F 75% 30.22 in 10.0 mi WSW 6.9 mph - N/A   Clear
11:53 PM 34.0 °F 26.6 °F 26.1 °F 73% 30.19 in 10.0 mi WSW 9.2 mph - N/A   Clear